[[{"header":{"parameterUnit":"m.s-1","parameterCategory":2,"la1":30.2992,"la2":30.254,"lo1":-89.0895,"lo2":-89.0443,"dy":0.0025,"dx":0.0025,"nx":19,"ny":19,"refTime":"2026-04-09T09:00:00:Z","depth":"0","parameterNumber":2,"parameterNumberName":"U-component_of_CURRENTS"},"data":[0,0,0,0.4836,0.4841,0.5033,0.5034,0.5188,0.519,0,0,0,0,0,0,0,0,0,0,0,0.4741,0.4741,0.4836,0.4841,0.5033,0.5034,0.5188,0.519,0,0,0,0,0,0,0,0,0,0,0,0.474,0.4741,0.4742,0.4842,0.5033,0.5034,0.5188,0.5063,0,0,0,0,0,0,0,0,0,0,0.4887,0.4796,0.4741,0.4742,0.4843,0.5033,0.5034,0.5058,0.5071,0.5078,0,0.5098,0,0.5164,0.5199,0.5199,0,0,0,0.4832,0.4785,0.4863,0.4742,0.4845,0.5033,0.4944,0.5066,0.508,0.5094,0.5101,0.5109,0.5166,0.52,0.52,0.5406,0.5408,0,0,0.4822,0.4754,0.4853,0.4872,0.4882,0.4938,0.495,0.5076,0.5067,0.5102,0.5114,0.5169,0.52,0.5201,0.5405,0.5407,0,0,0,0.4797,0.4746,0.4822,0.4863,0.4915,0.4944,0.4958,0.5061,0.5094,0.5116,0.5171,0.5201,0.5203,0.5404,0.5406,0.5418,0,0,0,0.479,0.4734,0.4816,0.4775,0.4913,0.5,0.4939,0.5084,0.5102,0.517,0.5201,0.5204,0.5402,0.5405,0.5415,0.5379,0,0,0,0.4734,0.4728,0.4752,0.4772,0.4867,0.5001,0.504,0.5089,0.5135,0.5199,0.5205,0.5401,0.5404,0.5412,0.5376,0.5428,0,0,0,0.4657,0.4701,0.4749,0.483,0.4865,0.5024,0.504,0.5141,0.5197,0.5202,0.5403,0.5406,0.5411,0.5374,0.5426,0.5348,0.5353,0,0,0.4681,0.4701,0.4762,0.4813,0.4973,0.4998,0.5139,0.5205,0.5247,0.5349,0.5356,0.5416,0.5376,0.5428,0.5519,0.5518,0,0,0,0.4754,0.4795,0.4852,0.4956,0.5067,0.5148,0.5229,0.5277,0.5388,0.5299,0.5473,0.5448,0.548,0.543,0.5431,0.5255,0.5419,0.5419,0.5419,0.4667,0.4795,0.4894,0.5046,0.5136,0.5263,0.5329,0.5413,0.544,0.5507,0.5502,0.5604,0.5555,0.5554,0.5375,0.5576,0.5576,0.5576,0.5576,0.4713,0.478,0.4917,0.5056,0.5162,0.5267,0.5427,0.5468,0.5586,0.5586,0.5618,0.55,0.5554,0.5363,0.5578,0.5577,0.5577,0.5577,0.5577,0.4642,0.4695,0.4777,0.4942,0.5078,0.5236,0.5345,0.5461,0.5581,0.5618,0.5593,0.5591,0.5383,0.5652,0.5652,0.5653,0.5653,0.5653,0.5653,0.4518,0.4614,0.4652,0.4836,0.4902,0.5057,0.5277,0.5382,0.5524,0.5586,0.5587,0.5401,0.5627,0.5577,0.5655,0.5654,0.5654,0.5654,0.5654,0.4475,0.4466,0.4515,0.4556,0.4731,0.4751,0.5029,0.5243,0.5406,0.547,0.5347,0.5592,0.5575,0.5574,0.5525,0.5585,0.5585,0.5585,0.5585,0.4386,0.441,0.4385,0.4387,0.4489,0.4605,0.4557,0.4721,0.5007,0.5058,0.5221,0.5156,0.5167,0.5122,0.5132,0.5073,0.5016,0.5015,0.5015,0.4341,0.4343,0.426,0.427,0.4368,0.4387,0.4167,0.4032,0.4543,0.4976,0.4991,0.5015,0.4906,0.4937,0.4858,0.4885,0.4786,0,0]},{"header":{"parameterUnit":"m.s-1","parameterCategory":2,"la1":30.2992,"la2":30.254,"lo1":-89.0895,"lo2":-89.0443,"dy":0.0025,"dx":0.0025,"nx":19,"ny":19,"refTime":"2026-04-09T09:00:00:Z","depth":"0","parameterNumber":3,"parameterNumberName":"V-component_of_CURRENTS"},"data":[0,0,0,-0.0338,-0.0339,-0.0419,-0.042,-0.053,-0.0531,0,0,0,0,0,0,0,0,0,0,0,-0.0303,-0.0303,-0.0338,-0.0339,-0.0419,-0.042,-0.053,-0.0531,0,0,0,0,0,0,0,0,0,0,0,-0.0303,-0.0303,-0.0303,-0.034,-0.0419,-0.042,-0.053,-0.0471,0,0,0,0,0,0,0,0,0,0,-0.0394,-0.0349,-0.0303,-0.0303,-0.034,-0.0419,-0.042,-0.0468,-0.0475,-0.0491,0,-0.0489,0,-0.0509,-0.0537,-0.0537,0,0,0,-0.0355,-0.0344,-0.0369,-0.0303,-0.0341,-0.0419,-0.0388,-0.0472,-0.0479,-0.05,-0.049,-0.0495,-0.0511,-0.0538,-0.0538,-0.0573,-0.0573,0,0,-0.035,-0.032,-0.0364,-0.0373,-0.0342,-0.0385,-0.039,-0.0476,-0.0473,-0.0491,-0.0497,-0.0513,-0.0538,-0.0539,-0.0574,-0.0573,0,0,0,-0.0327,-0.0316,-0.034,-0.0368,-0.0381,-0.0387,-0.0393,-0.0469,-0.0478,-0.0499,-0.0514,-0.0539,-0.054,-0.0574,-0.0574,-0.0417,0,0,0,-0.0325,-0.0303,-0.0338,-0.0321,-0.0378,-0.0423,-0.0383,-0.0472,-0.0482,-0.0513,-0.0539,-0.0541,-0.0574,-0.0574,-0.0422,-0.035,0,0,0,-0.0303,-0.0301,-0.0304,-0.0319,-0.0349,-0.0423,-0.0437,-0.0475,-0.0491,-0.0538,-0.0541,-0.0575,-0.0574,-0.0426,-0.0359,-0.0265,0,0,0,-0.0279,-0.0255,-0.0303,-0.0296,-0.0348,-0.0358,-0.0437,-0.0461,-0.0492,-0.0539,-0.0574,-0.0574,-0.0428,-0.0364,-0.027,0.0037,0.0088,0,0,-0.0234,-0.0249,-0.025,-0.0295,-0.0295,-0.0349,-0.0324,-0.0405,-0.049,-0.055,-0.0551,-0.042,-0.0359,-0.0266,0.0078,0.0129,0,0,0,-0.0227,-0.0221,-0.0231,-0.0249,-0.0276,-0.025,-0.0327,-0.0362,-0.0418,-0.0504,-0.045,-0.0417,-0.0362,-0.019,-0.0151,-0.0282,-0.057,-0.057,-0.057,-0.0105,-0.0157,-0.0141,-0.018,-0.0175,-0.0192,-0.0179,-0.0239,-0.0337,-0.0344,-0.031,-0.0163,0.0021,0.0054,-0.0086,-0.0339,-0.0338,-0.0338,-0.0337,-0.0019,-0.0026,-0.0058,-0.0057,-0.0051,-0.0029,-0.0043,-0.0085,-0.0085,-0.0206,-0.016,-0.0061,0.0108,-0.0058,-0.0328,-0.033,-0.0331,-0.0332,-0.0332,0.0057,0.0043,0.005,0.0074,0.0103,0.0092,0.0213,0.0146,0.0053,0.0105,0.0267,0.0267,0.0141,0.0125,0.0125,0.0126,0.0127,0.0127,0.0128,0.0124,0.0125,0.0191,0.02,0.0244,0.0311,0.0363,0.0439,0.0514,0.0463,0.0465,0.0197,-0.0023,-0.0018,0.0139,0.0137,0.0136,0.0135,0.0134,0.0173,0.0201,0.0323,0.0393,0.0513,0.0743,0.0759,0.1038,0.1035,0.1138,0.0744,0.0659,0.064,0.0609,0.0628,0.0943,0.0943,0.0943,0.0943,0.0222,0.0232,0.0459,0.0633,0.0819,0.0956,0.1464,0.1619,0.1416,0.1254,0.0993,0.0935,0.0908,0.0893,0.0856,0.0872,0.1241,0.1241,0.124,0.0273,0.0344,0.0549,0.0731,0.0961,0.1278,0.1835,0.2146,0.1711,0.1218,0.0744,0.0732,0.0594,0.0562,0.0488,0.0446,0.0453,0,0]}],[{"header":{"parameterUnit":"m.s-1","parameterCategory":2,"la1":30.2992,"la2":30.254,"lo1":-89.0895,"lo2":-89.0443,"dy":0.0025,"dx":0.0025,"nx":19,"ny":19,"refTime":"2026-04-09T09:00:00:Z","depth":"2","parameterNumber":2,"parameterNumberName":"U-component_of_CURRENTS"},"data":[0,0,0,0.336,0.3363,0.3511,0.3512,0.3579,0.3579,0,0,0,0,0,0,0,0,0,0,0,0.3308,0.3309,0.336,0.3363,0.3511,0.3512,0.3579,0.3579,0,0,0,0,0,0,0,0,0,0,0,0.3307,0.3309,0.331,0.3364,0.3511,0.3512,0.3579,0.3497,0,0,0,0,0,0,0,0,0,0,0.3369,0.3331,0.3308,0.331,0.3365,0.3511,0.3512,0.3495,0.3502,0.3477,0,0.3507,0,0.3542,0.3581,0.3581,0,0,0,0.3364,0.3325,0.3372,0.331,0.3366,0.3511,0.3445,0.35,0.3508,0.3486,0.3508,0.3512,0.3543,0.3581,0.3581,0.3658,0.3659,0,0,0.3355,0.3324,0.3367,0.3378,0.3411,0.344,0.3449,0.3507,0.351,0.3508,0.3514,0.3545,0.3581,0.3581,0.3657,0.3658,0,0,0,0.3332,0.3318,0.3367,0.3374,0.341,0.3444,0.3455,0.3508,0.3527,0.3515,0.3545,0.3581,0.3582,0.3657,0.3658,0.3722,0,0,0,0.3327,0.3305,0.3363,0.3345,0.341,0.3476,0.3454,0.3523,0.3531,0.3545,0.3581,0.3582,0.3656,0.3657,0.3718,0.3718,0,0,0,0.33,0.3302,0.3324,0.3343,0.3409,0.3477,0.35,0.3526,0.3548,0.3581,0.3582,0.3655,0.3657,0.3715,0.3714,0.3749,0,0,0,0.3257,0.3274,0.3323,0.3354,0.3408,0.3499,0.35,0.3564,0.3595,0.3581,0.3656,0.3658,0.3714,0.3712,0.3747,0.3653,0.3658,0,0,0.3248,0.3272,0.3291,0.3338,0.3404,0.3478,0.3558,0.3598,0.3608,0.3626,0.3629,0.3719,0.3714,0.3749,0.3744,0.3745,0,0,0,0.3268,0.328,0.3309,0.3365,0.3446,0.3537,0.3603,0.3636,0.3701,0.3636,0.3733,0.3727,0.3748,0.3686,0.3688,0.3665,0.3665,0.3665,0.3664,0.3203,0.326,0.3282,0.3367,0.3444,0.3582,0.3655,0.3716,0.3728,0.3777,0.3791,0.3873,0.3811,0.381,0.3819,0.3819,0.382,0.382,0.382,0.3156,0.3152,0.3251,0.3298,0.3427,0.354,0.3702,0.3764,0.3866,0.3856,0.3874,0.3771,0.3816,0.3825,0.3824,0.3823,0.3823,0.3822,0.3822,0.3088,0.3082,0.3138,0.3221,0.335,0.3531,0.3667,0.3816,0.3901,0.3948,0.3886,0.3883,0.389,0.3978,0.3978,0.3978,0.3978,0.3978,0.3978,0.2966,0.3011,0.3048,0.3152,0.3233,0.3412,0.3667,0.3763,0.3887,0.3929,0.3928,0.3925,0.392,0.3899,0.3981,0.3981,0.398,0.398,0.398,0.2841,0.2904,0.293,0.2992,0.3126,0.3169,0.3453,0.3625,0.3767,0.3783,0.3913,0.3913,0.3875,0.3872,0.3849,0.3914,0.3914,0.3914,0.3914,0.2753,0.2791,0.2803,0.284,0.2909,0.3025,0.3047,0.3227,0.3504,0.3605,0.3617,0.3549,0.356,0.3499,0.3504,0.3472,0.3438,0.3437,0.3436,0.2666,0.2693,0.2668,0.272,0.2768,0.2811,0.2735,0.2749,0.3049,0.3411,0.347,0.3894,0.3827,0.3831,0.3763,0.3762,0.372,0,0]},{"header":{"parameterUnit":"m.s-1","parameterCategory":2,"la1":30.2992,"la2":30.254,"lo1":-89.0895,"lo2":-89.0443,"dy":0.0025,"dx":0.0025,"nx":19,"ny":19,"refTime":"2026-04-09T09:00:00:Z","depth":"2","parameterNumber":3,"parameterNumberName":"V-component_of_CURRENTS"},"data":[0,0,0,0.0199,0.0199,0.0148,0.0147,0.0079,0.0078,0,0,0,0,0,0,0,0,0,0,0,0.0204,0.0204,0.0199,0.0199,0.0148,0.0147,0.0079,0.0078,0,0,0,0,0,0,0,0,0,0,0,0.0204,0.0204,0.0204,0.0199,0.0148,0.0147,0.0079,0.0112,0,0,0,0,0,0,0,0,0,0,0.0159,0.018,0.0204,0.0204,0.0199,0.0148,0.0147,0.0113,0.011,0.0109,0,0.0109,0,0.011,0.0076,0.0076,0,0,0,0.0173,0.0183,0.0171,0.0204,0.0198,0.0148,0.0163,0.0111,0.0107,0.0104,0.0108,0.0106,0.0108,0.0076,0.0076,0.0118,0.0119,0,0,0.0176,0.0191,0.0173,0.0169,0.0197,0.0165,0.0162,0.0109,0.0109,0.0108,0.0105,0.0107,0.0076,0.0075,0.0117,0.0118,0,0,0,0.0201,0.0193,0.0181,0.0171,0.0172,0.0165,0.0161,0.0111,0.0108,0.0104,0.0106,0.0075,0.0075,0.0117,0.0118,0.0241,0,0,0,0.0201,0.021,0.0183,0.019,0.0173,0.0144,0.0165,0.011,0.0105,0.0107,0.0075,0.0075,0.0116,0.0117,0.0236,0.0311,0,0,0,0.0205,0.021,0.0208,0.0192,0.0183,0.0145,0.0137,0.0109,0.0108,0.0076,0.0075,0.0115,0.0117,0.0231,0.0303,0.0357,0,0,0,0.0216,0.026,0.0208,0.0266,0.0184,0.0219,0.0137,0.0139,0.0121,0.0075,0.0116,0.0118,0.023,0.0297,0.0351,0.0403,0.0431,0,0,0.0289,0.0269,0.0308,0.0262,0.0331,0.0223,0.0285,0.0212,0.0145,0.0127,0.0127,0.0237,0.0302,0.0355,0.0502,0.0527,0,0,0,0.0344,0.0374,0.0386,0.0409,0.0397,0.039,0.0313,0.0279,0.0242,0.0147,0.0238,0.0275,0.0305,0.0324,0.0345,0.0126,0.0126,0.0125,0.0125,0.0452,0.046,0.054,0.0545,0.0551,0.0504,0.0493,0.043,0.0343,0.0343,0.0375,0.0503,0.0526,0.0542,0.0361,0.0362,0.0362,0.0363,0.0363,0.0594,0.0654,0.0655,0.0732,0.0707,0.0728,0.0667,0.0601,0.0587,0.049,0.0512,0.0454,0.0572,0.0373,0.0371,0.037,0.0369,0.0368,0.0367,0.0669,0.0708,0.0743,0.084,0.0905,0.0869,0.0937,0.0847,0.072,0.0744,0.072,0.0718,0.0579,0.0737,0.0738,0.0738,0.0739,0.0739,0.074,0.0733,0.0779,0.0862,0.0962,0.1037,0.1113,0.1095,0.1078,0.0983,0.0879,0.0878,0.0629,0.0617,0.06,0.0749,0.0747,0.0746,0.0745,0.0745,0.0857,0.0841,0.0981,0.1067,0.1261,0.1406,0.1382,0.1343,0.1278,0.124,0.0941,0.0933,0.0897,0.0879,0.0869,0.1078,0.1078,0.1078,0.1078,0.092,0.0926,0.1098,0.1251,0.144,0.1549,0.1667,0.157,0.1349,0.1181,0.1177,0.1103,0.1088,0.1055,0.1033,0.1022,0.1272,0.1272,0.1272,0.1011,0.1046,0.1177,0.1301,0.153,0.1688,0.1789,0.1684,0.1362,0.1277,0.1181,0.1097,0.097,0.0953,0.088,0.0854,0.0826,0,0]}],[{"header":{"parameterUnit":"m.s-1","parameterCategory":2,"la1":30.2992,"la2":30.254,"lo1":-89.0895,"lo2":-89.0443,"dy":0.0025,"dx":0.0025,"nx":19,"ny":19,"refTime":"2026-04-09T09:00:00:Z","depth":"4","parameterNumber":2,"parameterNumberName":"U-component_of_CURRENTS"},"data":[0,0,0,0.1884,0.1889,0.209,0.209,0.2289,0.2291,0,0,0,0,0,0,0,0,0,0,0,0.1811,0.1813,0.1884,0.1889,0.209,0.209,0.2288,0.2291,0,0,0,0,0,0,0,0,0,0,0,0.181,0.1812,0.1814,0.189,0.2089,0.209,0.2288,0.2149,0,0,0,0,0,0,0,0,0,0,0.196,0.1915,0.1812,0.1814,0.1891,0.2089,0.209,0.2143,0.2157,0.2184,0,0.2228,0,0.227,0.2303,0.2304,0,0,0,0.188,0.1903,0.195,0.1815,0.1893,0.2089,0.1996,0.2151,0.2168,0.2203,0.2231,0.2239,0.2274,0.2305,0.2306,0.2488,0.2489,0,0,0.1868,0.1853,0.1939,0.1961,0.1962,0.199,0.2003,0.2162,0.2189,0.2232,0.2244,0.2277,0.2306,0.2307,0.2488,0.2488,0,0,0,0.1843,0.1845,0.189,0.1952,0.1998,0.1996,0.2011,0.2182,0.2196,0.2247,0.2279,0.2307,0.2309,0.2487,0.2488,0.2533,0,0,0,0.1836,0.1831,0.1885,0.1878,0.1995,0.2104,0.2027,0.2184,0.2204,0.2278,0.2307,0.2311,0.2487,0.2488,0.253,0.2551,0,0,0,0.1799,0.1827,0.1853,0.1876,0.1968,0.2102,0.2126,0.219,0.2224,0.2304,0.2312,0.2486,0.2487,0.2528,0.2547,0.2637,0,0,0,0.177,0.1796,0.1854,0.1904,0.1966,0.2077,0.2125,0.2226,0.2295,0.2308,0.2487,0.2488,0.2527,0.2544,0.2633,0.2311,0,0,0,0.177,0.1796,0.1822,0.1878,0.1965,0.2048,0.2165,0.2277,0.2322,0.2427,0.2432,0.2531,0.2547,0.2636,0.2392,0,0,0,0,0.1799,0.1822,0.1858,0.1936,0.2028,0.2149,0.2261,0.232,0.2446,0.2374,0.2546,0.2555,0.261,0.2411,0.2495,0.2494,0.2494,0.2494,0.2494,0.1788,0.1832,0.1882,0.1965,0.2057,0.223,0.233,0.2437,0.2477,0.2542,0.2602,0.2714,0.2504,0.2614,0.2614,0.2614,0.2614,0.2615,0.2615,0.1781,0.1791,0.1893,0.1956,0.21,0.2228,0.2428,0.2503,0.2677,0.2656,0.2709,0.2483,0.2619,0.2619,0.2618,0.2617,0.2617,0.2617,0.2616,0.1743,0.1742,0.1816,0.1927,0.2075,0.2258,0.2429,0.2611,0.272,0.2794,0.2631,0.2768,0.2755,0.285,0.2851,0.2851,0.2851,0.2852,0.2852,0.1653,0.1714,0.1777,0.1904,0.1995,0.218,0.2474,0.259,0.2763,0.2659,0.2839,0.2794,0.2787,0.277,0.286,0.2858,0.2857,0.2857,0.2856,0.155,0.1621,0.1683,0.177,0.195,0.2051,0.2352,0.2502,0.2608,0.2598,0.2592,0.2603,0.2568,0.2567,0.2541,0.2567,0.2563,0.2559,0,0.148,0.1519,0.1599,0.169,0.1783,0.1966,0.2029,0.2196,0.2362,0.2277,0.2606,0.2594,0.26,0.2555,0.2548,0.2512,0,0,0,0.142,0.1455,0.1474,0.1588,0.1681,0.1819,0.203,0.2028,0.2315,0.2334,0.2464,0.2489,0.2703,0.2883,0.2858,0.2848,0.2821,0,0]},{"header":{"parameterUnit":"m.s-1","parameterCategory":2,"la1":30.2992,"la2":30.254,"lo1":-89.0895,"lo2":-89.0443,"dy":0.0025,"dx":0.0025,"nx":19,"ny":19,"refTime":"2026-04-09T09:00:00:Z","depth":"4","parameterNumber":3,"parameterNumberName":"V-component_of_CURRENTS"},"data":[0,0,0,0.0287,0.0288,0.028,0.028,0.0228,0.0227,0,0,0,0,0,0,0,0,0,0,0,0.0281,0.0281,0.0287,0.0288,0.0281,0.028,0.0228,0.0227,0,0,0,0,0,0,0,0,0,0,0,0.0281,0.0281,0.0281,0.0288,0.0281,0.028,0.0228,0.024,0,0,0,0,0,0,0,0,0,0,0.025,0.0262,0.0281,0.0281,0.0288,0.0281,0.028,0.024,0.0239,0.0224,0,0.0231,0,0.0239,0.0224,0.0224,0,0,0,0.0269,0.0263,0.0262,0.0281,0.0288,0.0281,0.0279,0.024,0.0238,0.0222,0.023,0.0229,0.0238,0.0224,0.0224,0.0231,0.0232,0,0,0.027,0.0275,0.0263,0.0261,0.0295,0.0279,0.0279,0.0239,0.024,0.023,0.0228,0.0237,0.0224,0.0223,0.0231,0.0231,0,0,0,0.0283,0.0276,0.0276,0.0263,0.0271,0.0279,0.0279,0.0241,0.0242,0.0227,0.0237,0.0224,0.0223,0.023,0.0231,0.0325,0,0,0,0.0283,0.0285,0.0276,0.0279,0.0273,0.0264,0.0282,0.0244,0.024,0.0237,0.0223,0.0223,0.023,0.0231,0.0321,0.0381,0,0,0,0.028,0.0285,0.0287,0.0279,0.0286,0.0265,0.0263,0.0243,0.0246,0.0224,0.0222,0.023,0.0231,0.0318,0.0374,0.0386,0,0,0,0.028,0.0314,0.0287,0.0332,0.0286,0.0322,0.0263,0.0273,0.0262,0.0223,0.023,0.0231,0.0317,0.037,0.0382,0.0393,0,0,0,0.0329,0.032,0.0349,0.0327,0.0388,0.0321,0.0367,0.0318,0.0267,0.0235,0.0236,0.0322,0.0374,0.0385,0.0448,0,0,0,0,0.037,0.0393,0.0406,0.0434,0.0437,0.044,0.0391,0.036,0.0327,0.0268,0.0315,0.0345,0.0349,0.0345,0.0236,0.0236,0.0235,0.0235,0.0235,0.0436,0.0452,0.0514,0.0532,0.0545,0.052,0.0507,0.0453,0.0394,0.0389,0.0416,0.0484,0.0484,0.0397,0.0398,0.0398,0.0399,0.0399,0.0399,0.0525,0.0573,0.0592,0.0659,0.0658,0.0681,0.0623,0.0574,0.0545,0.0489,0.0487,0.0438,0.0408,0.0406,0.0405,0.0404,0.0403,0.0403,0.0402,0.0571,0.0602,0.0643,0.0733,0.0797,0.0784,0.082,0.0754,0.0644,0.0653,0.0608,0.054,0.0537,0.064,0.064,0.064,0.064,0.0641,0.0641,0.0602,0.0647,0.0725,0.0816,0.089,0.0955,0.0942,0.0906,0.08,0.0728,0.068,0.0565,0.0557,0.055,0.0646,0.0645,0.0644,0.0644,0.0644,0.0666,0.0679,0.0793,0.0877,0.1038,0.1089,0.1094,0.0993,0.0951,0.086,0.0741,0.0735,0.0697,0.0686,0.0681,0.082,0.0821,0.0821,0,0.07,0.0716,0.0861,0.0989,0.1117,0.1166,0.1147,0.1087,0.0929,0.0914,0.0917,0.0787,0.078,0.0739,0.073,0.0728,0,0,0,0.0741,0.0783,0.0884,0.1005,0.1154,0.1144,0.1138,0.1087,0.0969,0.0912,0.0834,0.0831,0.0766,0.0661,0.0587,0.0577,0.0562,0,0]}]]